sat.trackr.live / text

‹ back to catalog

FLOCK 4G-6

NORAD 62660 · 2025-009BD

PAYLOAD ACTIVE UNKNOWN

§ Identity

Operator
Country
US
Launch date
2025-01-14
Launch site
AFWTR
Launch vehicle
Mass (kg)
RCS (m²)

Purposes: earth_obs

External: N2YO · Heavens-Above · Gunter

§ Orbital elements

Epoch: 2026-09-19T04:17:28.911840Z

Period
94.05 min
Inclination
97.3880°
Eccentricity
0.0003081
Mean motion
15.31067624 rev/d
Perigee alt
470.5 km
Apogee alt
474.7 km
Semi-major
6,850.8 km
B*
2.5435e-4
RAAN
343.1587°
Arg perigee
23.5676°
Mean anomaly
336.5706°
Rev number
15,087

§ Raw data

FLOCK 4G-61 62660U 25009BD  26262.17880685  .00007558  00000+0  25435-3 0  99932 62660  97.3880 343.1587 0003081  23.5676 336.5706 15.31067624150875

JSON: /api/v1/satellites/62660 · /tle

For live sub-satellite position, see the globe view (requires WebGL).

§ Visibility from observer

Set your observer location to see the next 7 days of passes ≥ 10°. The values pass through the URL so the page stays shareable.

No JS? Fill the form by hand. The geolocation button needs JavaScript.